Passez sur notre nouveau site : http://www.donnemoilinfo.com
Passez sur notre nouveau site : http://www.donnemoilinfo.com
Vous souhaitez réagir à ce message ? Créez un compte en quelques clics ou connectez-vous pour continuer.


 
 
AccueilRechercherS'enregistrerConnexionPlan
Ce forum n'est plus mis à jour, passez sur notre site http://www.donnemoilinfo.com/ Pour des raisons de confidentialité tous les comptes ont été supprimés.
Le Deal du moment :
Frieren : le Tome 5 édition Collector du manga ...
Voir le deal
10.95 €

 

 Besoin d aide

Aller en bas 
AuteurMessage
Invité
Invité
Anonymous



Besoin d aide Empty
MessageSujet: Besoin d aide   Besoin d aide EmptyMer 04 Juil 2007, 00:12

voila boule

SystemScan - www.suspectfile.com - ver. 3.2.0

Running on: Windows XP PROFESSIONAL Edition, Service Pack 2 (2600.5.1)
System directory: C:\WINDOWS

Date: 03/07/2007
Time: 23:11:24

Output limited to:
-Recent files

===================== Recent files (30 days old)=====================

----- recent files in C:\
13/06/2007 22:53:49 (DIR) 0 byte 20 days old -- System Volume Information
16/06/2007 17:26:39 209 byte 17 days old -- boot.ini
01/07/2007 09:48:50 (DIR) 0 byte 2 days old -- kav
01/07/2007 23:13:32 1895 byte 2 days old -- rapport.txt
03/07/2007 19:45:38 (DIR) 0 byte 0 days old -- Program Files
03/07/2007 22:21:31 (DIR) 0 byte 0 days old -- Config.Msi
03/07/2007 22:21:31 2145386496 byte 0 days old -- pagefile.sys
03/07/2007 22:21:32 (DIR)2145304576 byte 0 days old -- hiberfil.sys
03/07/2007 22:21:58 (DIR) 0 byte 0 days old -- WINDOWS
03/07/2007 23:11:24 (DIR) 0 byte 0 days old -- suspectfile

----- recent files in C:\WINDOWS\
05/06/2007 18:07:26 (DIR) 0 byte 28 days old -- Help
05/06/2007 18:07:27 (DIR) 0 byte 28 days old -- SoftwareDistribution
12/06/2007 21:08:16 (DIR) 0 byte 21 days old -- ERDNT
13/06/2007 18:21:32 (DIR) 0 byte 20 days old -- $hf_mig$
13/06/2007 18:29:14 (DIR) 0 byte 20 days old -- ie7updates
13/06/2007 18:29:27 (DIR) 0 byte 20 days old -- $NtUninstallKB935839$
13/06/2007 18:30:00 (DIR) 0 byte 20 days old -- $NtUninstallKB935840$
13/06/2007 18:30:03 (DIR) 0 byte 20 days old -- $NtUninstallKB929123$
13/06/2007 18:55:35 (DIR) 0 byte 20 days old -- Debug
16/06/2007 09:20:16 (DIR) 0 byte 17 days old -- pss
16/06/2007 17:26:38 603 byte 17 days old -- win.ini
16/06/2007 22:46:32 1120 byte 17 days old -- cdplayer.ini
16/06/2007 22:55:12 277 byte 17 days old -- system.ini
17/06/2007 12:10:45 (DIR) 0 byte 16 days old -- Tasks
24/06/2007 00:17:16 10 byte 9 days old -- tarot.cfg
26/06/2007 23:43:43 (DIR) 0 byte 7 days old -- Fonts
30/06/2007 23:10:18 (DIR) 0 byte 3 days old -- Downloaded Program Files
01/07/2007 10:09:40 (DIR) 0 byte 2 days old -- inf
02/07/2007 22:18:46 1256 byte 1 days old -- eReg.dat
03/07/2007 19:45:38 (DIR) 0 byte 0 days old -- system32
03/07/2007 22:08:12 (DIR) 0 byte 0 days old -- Installer
03/07/2007 22:20:14 32526 byte 0 days old -- SchedLgU.Txt
03/07/2007 22:21:37 2048 byte 0 days old -- bootstat.dat
03/07/2007 22:21:51 4798 byte 0 days old -- WindowsUpdate.log
03/07/2007 22:21:53 0 byte 0 days old -- 0.log
03/07/2007 22:21:54 (DIR) 0 byte 0 days old -- Registration
03/07/2007 23:11:16 (DIR) 0 byte 0 days old -- Prefetch
03/07/2007 23:11:21 (DIR) 0 byte 0 days old -- Temp

----- recent files in C:\WINDOWS\Downloaded Program Files\

----- recent files in C:\WINDOWS\system\

----- recent files in C:\WINDOWS\system32\
06/06/2007 08:38:41 15747032 byte 27 days old -- MRT.exe
13/06/2007 18:30:04 (DIR) 0 byte 20 days old -- dllcache
13/06/2007 21:11:37 (DIR) 0 byte 20 days old -- Kaspersky Lab
20/06/2007 13:04:12 206088 byte 13 days old -- klogon.dll
27/06/2007 09:17:11 1421992 byte 6 days old -- FNTCACHE.DAT
01/07/2007 10:05:56 3072 byte 2 days old -- CONFIG.NT
01/07/2007 22:31:57 (DIR) 0 byte 2 days old -- drivers
01/07/2007 23:11:10 1842 byte 2 days old -- tmp.reg
01/07/2007 23:11:10 0 byte 2 days old -- tmp.txt
03/07/2007 19:08:59 (DIR) 0 byte 0 days old -- Restore
03/07/2007 22:21:59 2206 byte 0 days old -- wpa.dbl
03/07/2007 22:24:08 (DIR) 0 byte 0 days old -- CatRoot2

----- recent files in C:\WINDOWS\system32\drivers\
14/06/2007 10:39:06 186128 byte 19 days old -- klif.sys
20/06/2007 13:03:36 22457 byte 13 days old -- klop.dat
01/07/2007 10:09:46 82258 byte 2 days old -- klick.dat
01/07/2007 10:09:46 82258 byte 2 days old -- klin.dat
01/07/2007 22:34:40 (DIR) 0 byte 2 days old -- etc
01/07/2007 23:10:05 326 byte 2 days old -- fwdrv.err
03/07/2007 22:20:18 73532 byte 0 days old -- fidbox.idx
03/07/2007 22:20:18 17768 byte 0 days old -- fidbox2.idx
03/07/2007 23:11:06 167456 byte 0 days old -- fidbox2.dat
03/07/2007 23:11:21 5911840 byte 0 days old -- fidbox.dat

----- recent files in C:\WINDOWS\temp\
03/07/2007 13:55:22 (DIR) 0 byte 0 days old -- Cookies
03/07/2007 13:55:22 (DIR) 0 byte 0 days old -- Fichiers Internet temporaires
03/07/2007 13:55:22 (DIR) 0 byte 0 days old -- History
03/07/2007 13:55:35 8192 byte 0 days old -- cch~1f64dbbbf0.htp
03/07/2007 13:55:35 8192 byte 0 days old -- cch~1f044360ab.htp
03/07/2007 13:55:35 8192 byte 0 days old -- cch~1f044f2b65.htp
03/07/2007 13:55:35 8192 byte 0 days old -- cch~1f64cc3856.htp
03/07/2007 13:55:46 8192 byte 0 days old -- cch~25959ed3db.htp
03/07/2007 13:55:46 8192 byte 0 days old -- cch~2595aa80ce.htp
03/07/2007 13:55:52 8192 byte 0 days old -- cch~28d1c3a254.htp
03/07/2007 13:55:52 8192 byte 0 days old -- cch~28d1b4dd07.htp
03/07/2007 13:55:55 8192 byte 0 days old -- cch~2a5385d57e.htp
03/07/2007 13:55:55 8192 byte 0 days old -- cch~2a537a031a.htp
03/07/2007 13:55:57 8192 byte 0 days old -- cch~2bcc2a3a22.htp
03/07/2007 13:55:57 8192 byte 0 days old -- cch~2bcc1b97a3.htp
03/07/2007 14:26:13 8192 byte 0 days old -- cch~41fb72313a3.htp
03/07/2007 14:26:13 8192 byte 0 days old -- cch~41fb732f3f2.htp
03/07/2007 14:26:13 8192 byte 0 days old -- cch~41f63ce670a.htp
03/07/2007 14:26:13 8192 byte 0 days old -- cch~41fa05f71e3.htp
03/07/2007 14:26:13 8192 byte 0 days old -- cch~41f63da2b31.htp
03/07/2007 14:26:13 8192 byte 0 days old -- cch~41fa06b6a63.htp
03/07/2007 14:26:13 8192 byte 0 days old -- cch~41fa175d223.htp
03/07/2007 14:26:13 8192 byte 0 days old -- cch~41fa16a0c3a.htp
03/07/2007 14:26:25 8192 byte 0 days old -- cch~4265eb8257e.htp
03/07/2007 14:26:25 8192 byte 0 days old -- cch~4264a938ee4.htp
03/07/2007 14:26:31 8192 byte 0 days old -- cch~429a1399808.htp
03/07/2007 14:26:31 8192 byte 0 days old -- cch~429a145aefa.htp
03/07/2007 14:26:45 8192 byte 0 days old -- cch~4312a945103.htp
03/07/2007 14:26:45 8192 byte 0 days old -- cch~4312a9fe311.htp
03/07/2007 14:27:58 8192 byte 0 days old -- cch~45a07fcf9d3.htp
03/07/2007 14:27:58 8192 byte 0 days old -- cch~45a08082782.htp
03/07/2007 14:28:01 8192 byte 0 days old -- cch~45b924cb30e.htp
03/07/2007 14:28:01 8192 byte 0 days old -- cch~45b92606a04.htp
03/07/2007 14:30:40 8192 byte 0 days old -- cch~4b46661655c.htp
03/07/2007 14:30:40 8192 byte 0 days old -- cch~4b46655903a.htp
03/07/2007 22:21:45 255 byte 0 days old -- WGAErrLog.txt
03/07/2007 22:22:00 409 byte 0 days old -- WGANotify.settings
03/07/2007 23:11:17 8192 byte 0 days old -- cch~68d1633fcb9.htp
03/07/2007 23:11:17 8192 byte 0 days old -- cch~68d1627ede6.htp
03/07/2007 23:11:18 8192 byte 0 days old -- cch~68d93843a62.htp
03/07/2007 23:11:18 8192 byte 0 days old -- cch~68d93901ac4.htp
03/07/2007 23:11:21 8192 byte 0 days old -- cch~68f21a0b29e.htp
03/07/2007 23:11:21 8192 byte 0 days old -- cch~68f21942d1b.htp

f report
Revenir en haut Aller en bas
boule
Membre aide
Membre aide



Masculin
OS : XP
Navigateur : opera

Pays : Besoin d aide Achat_11
Messages postés : 8781
Votes reçus : 164

Besoin d aide Empty
MessageSujet: Re: Besoin d aide   Besoin d aide EmptyMer 04 Juil 2007, 00:24

Y'a rien, t'es sûr que c'est pas Kaspersky qui délire ?

Fais ceci au cas ou

Télécharge MSNFix de Laurent
http://sosvirus.changelog.fr/MSNFix.zip

Décompresse-le et double clic sur le fichier MSNFix.bat.
- Exécute l'option R.
--Si l'infection est détectée, exécute l'option N
- Sauvegarde ce rapport puis fais un copier/coller de ce rapport sur le forum.
Revenir en haut Aller en bas
http://www.donnemoilinfo.com
 
Besoin d aide
Revenir en haut 
Page 1 sur 1
 Sujets similaires
-
» besoin d'aide
» hijackthis besoin d'aide
» besoin d'aide
» besoin d'aide avec kerio
» Besoin d'aide d'urgence

Permission de ce forum:Vous ne pouvez pas répondre aux sujets dans ce forum
 :: Anciens sujets-
Sauter vers:  
Ne ratez plus aucun deal !
Abonnez-vous pour recevoir par notification une sélection des meilleurs deals chaque jour.
IgnorerAutoriser